Wind_Speed
8 9 9 9 9 9 9 9 9 10 10 10 9 9 10 10 10 10 11 11 11 11 11 11 12 12 12 12 11 11 11 11 10 10 9 8 7 7 6 6 6 6 7
11 11 11 12 12 12 12 12 12 12 12 12 11 11 11 11 11 11 11 11 11 11 11 11 11 11 11 11 11 11 11 11 11 10 10 9 8 7 6 6 6 6 5
13 13 13 13 14 14 15 15 15 15 14 14 14 13 13 12 12 11 11 11 11 10 10 10 10 10 10 10 11 11 11 11 11 10 10 9 8 8 7 7 6 5 4
14 14 15 15 15 16 16 16 18 17 17 16 16 15 15 14 13 13 12 11 11 10 10 10 10 10 10 10 10 11 11 11 10 10 9 9 8 7 7 6 6 5 4
15 15 16 17 17 18 18 19 19 20 20 19 18 18 17 16 16 15 14 13 12 11 10 10 9 9 9 9 10 10 10 10 10 10 9 9 9 7 7 6 6 5 4
18 18 18 18 19 20 21 21 21 21 22 22 22 21 20 19 18 17 16 14 13 12 11 10 10 9 10 9 9 10 9 9 10 9 9 9 9 8 7 7 6 5 4
21 21 22 21 21 22 23 24 23 22 23 24 24 24 23 22 21 19 18 17 15 14 13 11 10 10 10 9 9 9 9 9 9 9 9 9 8 8 7 7 6 5 4
24 24 25 25 25 24 25 25 24 23 24 25 26 25 25 24 23 22 21 19 18 16 15 13 12 11 10 10 9 9 9 9 9 9 9 9 8 8 7 7 6 6 5
27 27 28 27 27 28 27 27 27 26 26 26 26 27 26 25 25 25 24 22 21 19 17 15 14 12 11 10 10 9 9 9 8 8 8 9 8 8 7 7 6 6 6
29 30 30 30 30 30 30 30 30 29 29 28 28 28 27 27 27 26 26 25 23 20 19 18 16 14 13 11 11 10 9 9 8 8 8 9 9 8 8 8 7 7 7
30 31 31 32 33 33 33 33 33 32 32 32 32 31 29 28 29 28 27 27 26 24 21 20 19 17 15 13 11 11 10 9 8 8 8 8 8 8 8 8 8 8 8
29 30 30 31 32 33 34 34 34 35 35 34 34 33 32 31 30 30 29 29 27 26 24 22 22 20 17 15 13 12 11 10 9 9 9 8 8 8 9 9 9 8 9
29 29 29 30 30 31 32 33 34 35 35 35 35 34 33 33 32 32 31 29 29 28 27 25 24 23 20 18 16 14 13 11 11 10 10 10 9 9 9 10 10 9 9
26 27 27 28 29 30 31 31 33 34 34 35 35 35 35 34 33 32 32 31 30 30 29 27 26 24 23 21 18 16 15 14 12 12 12 11 10 10 10 11 11 10 10
24 25 25 26 27 28 29 30 31 32 33 34 34 35 35 34 35 34 33 32 31 30 31 30 29 27 24 23 21 19 17 16 15 14 13 12 12 11 11 11 11 11 11
23 23 24 24 25 26 26 27 28 29 30 31 32 33 34 34 33 33 33 33 32 31 31 30 29 28 27 26 24 22 20 18 17 16 15 14 13 13 12 12 12 12 12
23 23 23 23 23 23 24 24 24 25 26 27 28 30 31 33 33 33 34 33 33 33 32 30 29 28 28 27 26 24 21 21 19 18 17 16 15 15 14 14 13 13 13
23 23 23 23 22 22 22 21 21 21 22 23 24 26 27 29 31 32 33 34 34 33 33 33 32 29 28 28 26 26 23 22 22 20 20 19 18 17 16 16 15 14 14
22 23 23 22 22 22 21 20 19 19 20 20 21 23 24 26 27 29 30 32 34 35 33 34 33 31 30 30 28 27 25 25 24 22 22 21 20 19 19 18 18 17 16
22 22 23 23 22 22 21 19 19 18 18 18 19 20 21 22 24 26 28 30 32 34 34 34 34 33 31 31 30 29 28 26 26 25 24 24 23 22 21 21 20 19 18
22 22 23 23 23 22 21 19 19 18 17 16 16 17 19 20 21 23 25 28 29 31 33 34 35 35 33 32 32 32 31 29 28 28 27 26 26 25 24 23 22 21 20
22 22 23 23 23 22 21 20 19 18 17 16 15 15 16 18 19 20 22 24 27 29 31 32 34 35 35 35 33 33 33 31 31 30 29 29 28 28 27 26 24 23 22
22 23 23 23 23 22 21 20 19 18 17 16 15 14 15 16 17 18 20 22 24 26 29 31 32 35 36 35 35 35 34 33 34 32 33 32 32 30 29 29 27 26 25
22 23 24 24 23 22 22 20 19 19 18 17 15 14 14 14 15 17 18 19 21 24 26 29 31 33 35 36 36 36 36 34 35 34 34 35 35 34 32 31 30 29 28
22 23 24 24 23 23 22 21 21 20 19 18 17 15 15 14 14 15 16 18 20 22 24 27 29 32 34 36 36 37 37 36 36 36 35 36 36 36 35 33 32 33 31
22 23 23 23 23 23 23 22 21 21 20 19 18 17 16 15 14 14 15 16 18 20 22 25 28 31 32 34 35 36 36 36 37 37 36 35 36 37 37 36 34 35 34
Wind_Direction
282 278 276 275 272 268 262 259 257 258 258 259 258 258 257 254 253 252 251 252 252 250 249 248 247 244 242 241 239 239 240 242 241 242 247 255 264 274 286 305 319 329 340
285 281 278 274 272 269 266 262 259 259 259 259 257 257 256 255 254 254 254 254 253 252 250 249 248 245 244 241 240 239 241 243 241 240 244 250 257 263 272 290 304 316 330
289 284 280 278 275 270 267 264 259 259 259 259 258 257 256 257 257 256 256 256 255 254 251 248 247 244 244 242 240 241 241 242 239 238 241 247 251 257 265 278 288 303 317
293 288 281 278 276 273 269 268 260 256 256 256 257 257 256 256 256 255 254 256 256 255 253 249 246 244 243 241 240 241 241 241 238 235 236 244 251 256 260 267 274 286 295
296 291 286 282 278 275 271 267 263 257 254 253 253 254 254 253 253 253 252 253 254 254 253 250 247 246 244 242 241 242 241 239 237 234 237 243 250 253 254 258 263 268 274
295 292 289 287 284 280 274 269 266 261 255 253 251 249 249 250 250 250 249 249 250 251 250 249 248 247 245 244 243 242 240 238 236 234 237 243 248 249 250 253 251 251 249
292 289 286 284 283 281 279 274 271 265 257 254 254 251 247 246 247 248 247 246 246 247 247 247 247 246 246 244 243 241 238 236 233 233 236 241 245 245 244 242 237 232 224
290 288 287 285 281 279 280 274 273 270 263 258 256 255 252 249 246 245 246 245 245 245 244 244 245 245 244 244 242 239 237 236 234 234 236 238 238 238 234 227 219 214 209
290 288 285 284 281 279 278 274 272 271 267 262 260 257 254 252 248 245 244 244 245 244 243 242 242 243 243 243 241 239 237 235 233 234 233 233 230 231 225 216 211 204 197
290 288 286 283 280 278 276 275 274 271 268 266 263 261 259 255 251 248 244 242 241 242 242 241 240 240 241 239 238 236 235 234 229 230 227 227 226 225 218 211 204 198 191
292 290 287 284 282 280 278 276 274 272 269 267 267 264 263 261 256 251 247 243 241 240 239 239 238 236 237 237 235 234 232 231 229 224 224 225 221 217 209 199 192 189 184
297 295 292 289 286 282 279 277 275 273 271 270 269 267 264 262 261 255 251 246 241 240 237 236 236 234 233 235 234 233 230 228 226 221 221 219 215 209 202 195 189 187 184
300 298 295 293 290 287 283 279 276 274 273 271 269 268 266 263 262 259 258 250 245 242 238 235 235 234 232 233 233 232 230 226 223 220 220 219 215 208 202 198 192 187 185
306 303 300 297 294 291 287 283 279 277 274 271 269 267 266 264 263 261 260 259 253 246 241 237 234 233 232 232 232 232 231 229 224 221 220 219 214 209 205 200 194 190 186
312 309 306 303 300 296 292 287 283 280 277 273 270 267 266 264 262 262 259 260 256 251 246 243 238 234 233 231 230 229 230 231 226 222 222 217 214 210 205 198 195 193 190
319 317 314 310 306 303 298 292 286 282 279 275 271 268 265 264 262 261 258 257 257 254 253 249 242 237 234 233 230 228 228 230 228 223 222 217 213 209 204 200 200 198 195
327 325 323 318 315 312 308 301 293 286 281 278 274 269 266 264 261 260 258 256 256 255 256 254 247 241 237 234 232 230 230 229 229 226 223 219 214 211 207 206 205 203 199
334 333 331 328 325 322 318 311 303 295 288 282 276 271 268 265 263 260 258 256 256 254 254 254 252 245 241 237 235 233 232 230 228 226 223 221 217 214 211 210 209 206 205
342 341 339 336 332 329 325 320 313 305 297 289 281 276 271 267 264 261 258 256 255 254 253 251 251 249 244 241 239 235 233 230 228 226 224 223 220 218 217 216 215 213 212
347 346 346 343 340 337 333 327 321 314 307 297 287 280 275 271 267 262 259 256 254 253 252 249 247 247 245 243 242 239 233 230 229 227 226 225 223 220 221 220 219 218 217
352 351 351 349 346 344 342 337 331 326 320 310 297 287 280 276 272 267 261 257 254 251 250 248 246 245 245 244 242 241 238 235 231 228 227 227 226 223 222 222 223 223 221
356 355 354 353 352 350 348 346 341 337 331 324 313 300 289 282 276 270 265 259 255 251 249 247 246 245 244 244 242 241 240 237 233 231 228 227 227 226 224 222 224 225 225
360 359 357 356 356 355 354 352 350 347 343 336 327 315 301 290 283 276 269 262 256 253 250 247 245 245 243 243 242 241 241 240 237 234 232 230 229 228 226 225 225 226 227
3 2 2 1 1 360 359 358 355 352 349 344 337 329 316 303 292 283 274 267 261 256 252 248 246 245 244 244 243 242 241 240 238 236 234 233 232 230 228 229 227 227 228
5 4 4 5 5 4 2 1 359 356 353 349 342 336 329 317 305 293 282 273 267 261 256 251 247 246 244 244 243 241 241 240 239 238 235 235 233 231 230 231 229 229 228
8 8 8 8 7 7 5 3 2 360 358 355 350 344 336 327 316 305 293 283 275 267 260 255 249 247 245 243 241 241 240 239 239 237 236 237 234 231 231 232 231 230 229
Height
5902 5901 5901 5900 5900 5900 5899 5899 5898 5897 5897 5896 5896 5895 5895 5894 5894 5894 5894 5893 5893 5893 5894 5894 5894 5895 5895 5895 5896 5897 5897 5898 5898 5899 5900 5900 5901 5901 5901 5901 5901 5901 5901
5901 5900 5900 5899 5899 5899 5898 5898 5897 5897 5896 5895 5895 5894 5894 5894 5893 5893 5893 5893 5892 5892 5892 5893 5893 5893 5894 5894 5895 5895 5896 5896 5897 5897 5898 5899 5899 5900 5900 5900 5900 5900 5900
5900 5899 5898 5898 5897 5897 5896 5896 5895 5895 5895 5894 5894 5893 5893 5893 5892 5892 5892 5892 5892 5891 5891 5891 5891 5892 5892 5893 5893 5894 5894 5895 5895 5896 5897 5897 5898 5898 5899 5899 5899 5900 5900
5898 5897 5896 5895 5895 5894 5894 5893 5893 5892 5892 5892 5892 5892 5891 5891 5891 5891 5891 5891 5890 5890 5890 5890 5890 5890 5891 5891 5891 5892 5892 5893 5894 5895 5895 5896 5896 5897 5897 5898 5898 5899 5899
5896 5895 5894 5893 5892 5891 5891 5890 5890 5889 5889 5889 5889 5889 5889 5889 5889 5889 5889 5889 5889 5889 5889 5889 5889 5889 5889 5889 5890 5890 5891 5891 5892 5893 5894 5894 5895 5895 5896 5897 5897 5898 5898
5894 5892 5891 5890 5889 5888 5888 5887 5886 5886 5885 5885 5885 5885 5886 5886 5886 5886 5887 5887 5887 5887 5887 5887 5887 5887 5888 5888 5888 5888 5889 5890 5890 5891 5892 5893 5893 5894 5894 5895 5896 5897 5898
5891 5889 5887 5886 5886 5885 5884 5883 5882 5882 5881 5881 5881 5882 5882 5882 5883 5883 5884 5884 5884 5885 5885 5885 5885 5886 5886 5886 5886 5887 5887 5888 5889 5890 5891 5891 5892 5892 5893 5894 5895 5895 5897
5886 5885 5883 5882 5881 5880 5880 5879 5878 5877 5877 5877 5877 5877 5878 5878 5879 5879 5880 5881 5882 5882 5883 5883 5883 5884 5884 5884 5885 5885 5886 5886 5887 5888 5889 5889 5890 5891 5892 5892 5893 5894 5896
5881 5879 5878 5877 5876 5875 5874 5873 5873 5873 5872 5872 5872 5872 5873 5874 5875 5875 5876 5877 5878 5879 5880 5881 5881 5882 5882 5882 5883 5883 5884 5885 5886 5887 5887 5888 5889 5890 5890 5891 5892 5894 5895
5875 5873 5872 5871 5870 5869 5868 5867 5867 5866 5867 5867 5867 5867 5868 5868 5870 5871 5871 5873 5874 5875 5876 5877 5878 5879 5880 5880 5881 5882 5883 5883 5884 5885 5886 5886 5887 5888 5889 5890 5892 5893 5894
5868 5867 5865 5864 5862 5861 5861 5860 5860 5860 5860 5860 5861 5861 5862 5863 5864 5865 5866 5867 5869 5870 5872 5873 5875 5876 5877 5878 5879 5880 5881 5882 5883 5884 5885 5885 5886 5887 5888 5889 5891 5892 5894
5862 5860 5858 5856 5855 5854 5853 5852 5852 5852 5852 5853 5853 5854 5855 5857 5858 5859 5860 5861 5863 5865 5867 5869 5871 5872 5874 5875 5876 5878 5879 5880 5881 5882 5883 5884 5885 5886 5887 5889 5890 5891 5893
5856 5854 5851 5849 5848 5847 5846 5845 5844 5844 5844 5845 5846 5847 5848 5850 5851 5853 5854 5856 5858 5859 5862 5864 5866 5868 5870 5872 5873 5875 5876 5878 5879 5881 5882 5883 5884 5885 5886 5888 5889 5891 5892
5851 5848 5846 5843 5841 5839 5838 5837 5836 5836 5836 5836 5837 5839 5840 5842 5844 5846 5848 5850 5852 5854 5856 5858 5861 5863 5866 5868 5870 5872 5874 5875 5877 5879 5880 5881 5882 5883 5885 5886 5888 5890 5891
5846 5843 5840 5837 5835 5833 5831 5829 5828 5827 5827 5828 5829 5830 5832 5834 5836 5838 5840 5843 5845 5847 5850 5853 5855 5858 5861 5863 5866 5868 5870 5872 5874 5876 5877 5879 5881 5882 5883 5885 5887 5889 5891
5842 5839 5836 5832 5829 5827 5824 5822 5821 5820 5819 5819 5820 5821 5823 5825 5828 5830 5833 5836 5838 5841 5843 5846 5849 5852 5854 5858 5861 5863 5866 5869 5871 5873 5874 5876 5878 5880 5882 5884 5886 5888 5889
5839 5835 5832 5828 5825 5821 5818 5816 5814 5813 5812 5812 5812 5813 5815 5817 5819 5822 5825 5828 5831 5834 5836 5839 5843 5846 5849 5852 5855 5858 5862 5864 5867 5870 5872 5873 5876 5878 5880 5882 5884 5886 5888
5836 5832 5828 5824 5821 5817 5814 5811 5808 5807 5806 5805 5805 5806 5807 5809 5811 5814 5817 5820 5823 5826 5830 5833 5836 5840 5843 5846 5850 5853 5856 5860 5863 5866 5868 5871 5873 5876 5878 5880 5882 5884 5886
5834 5830 5826 5821 5817 5814 5810 5807 5804 5802 5801 5800 5799 5799 5800 5801 5803 5806 5809 5811 5815 5818 5822 5826 5829 5833 5836 5840 5843 5847 5850 5854 5858 5861 5864 5867 5870 5873 5875 5878 5880 5882 5884
5833 5828 5824 5819 5815 5811 5807 5804 5801 5798 5796 5795 5794 5794 5794 5795 5796 5798 5801 5803 5807 5810 5814 5818 5822 5826 5830 5833 5837 5841 5844 5848 5852 5856 5859 5863 5866 5869 5872 5874 5877 5880 5882
5832 5827 5822 5818 5813 5809 5805 5801 5798 5795 5793 5791 5789 5789 5789 5789 5790 5792 5794 5796 5799 5802 5806 5810 5813 5818 5822 5826 5830 5834 5838 5842 5846 5850 5854 5857 5861 5864 5868 5871 5874 5876 5879
5831 5826 5821 5817 5812 5807 5803 5800 5796 5793 5790 5788 5786 5785 5784 5784 5784 5785 5787 5789 5791 5795 5798 5802 5805 5809 5814 5818 5822 5826 5831 5836 5840 5843 5848 5852 5855 5858 5862 5866 5868 5873 5875
5830 5826 5821 5816 5811 5807 5803 5799 5795 5791 5788 5786 5784 5782 5781 5780 5780 5780 5781 5783 5785 5787 5790 5794 5797 5801 5806 5810 5814 5819 5823 5828 5832 5837 5841 5845 5849 5852 5856 5860 5864 5868 5871
5830 5826 5821 5816 5811 5806 5802 5798 5794 5791 5787 5784 5782 5780 5778 5777 5776 5776 5776 5777 5778 5780 5783 5786 5789 5793 5797 5802 5806 5811 5816 5820 5825 5830 5834 5838 5842 5846 5850 5853 5858 5861 5865
5831 5826 5821 5816 5811 5807 5802 5798 5794 5790 5787 5783 5780 5778 5776 5774 5772 5772 5771 5772 5773 5774 5776 5778 5781 5785 5789 5793 5797 5802 5807 5812 5816 5821 5826 5831 5835 5839 5843 5847 5851 5855 5860
5831 5826 5822 5817 5812 5807 5803 5798 5794 5790 5786 5782 5779 5776 5774 5771 5770 5768 5767 5767 5767 5768 5769 5771 5773 5776 5780 5784 5789 5793 5798 5803 5808 5813 5818 5822 5827 5831 5835 5839 5844 5848 5852